Hourly Data Report for November 20, 2021

MOUNT FOREST (AUT)
ONTARIO
Current Station Operator: ECCC - MSC

43°59'00.000" N
80°45'00.000" W
414.50 m
6145504
71631
WLS

Download Data

Hourly Data (November 2021)
Hourly Data Report for November 20, 2021
TIME
LST
Temp Definition
°C
Dew Point Definition
°C
Rel Hum Definition
%
Precip. Amount Definition
mm

Wind Dir Definition
10's deg

Wind Spd Definition
km/h
Visibility Definition
km
Stn Press Definition
kPa
Hmdx Definition


Wind Chill Definition


Weather Definition


00:00 0.2 -3.3 77 0.0 20 7   97.95     LegendNANA
01:00 -0.1 -3.2 80 0.0 20 10   97.92   -3 LegendNANA
02:00 -0.5 -3.6 80 0.0 20 9   97.92   -4 LegendNANA
03:00 -0.5 -4.0 77 0.0 19 8   97.88   -3 LegendNANA
04:00 -0.3 -4.0 76 0.0 20 11   97.82   -4 LegendNANA
05:00 0.0 -3.9 75 0.0 19 11   97.81   -4 LegendNANA
06:00 0.0 -3.6 76 0.0 18 11   97.76   -4 LegendNANA
07:00 0.0 -3.8 75 0.0 18 10   97.74   -3 LegendNANA
08:00 0.6 -2.7 78 0.0 18 16   97.67     LegendNANA
09:00 0.9 -2.6 78 0.0 19 19   97.64     LegendNANA
10:00 1.0 -2.3 78 0.0 19 19   97.57     LegendNANA
11:00 1.6 -2.3 75 0.0 18 19   97.50     LegendNANA
12:00 2.0 -2.1 74 0.0 19 19   97.40     LegendNANA
13:00 2.4 -1.9 73 0.0 18 16   97.23     LegendNANA
14:00 3.2 -1.9 69 0.0 19 16   97.23     LegendNANA
15:00 3.3 -1.3 72 0.0 20 10   97.15     LegendNANA
16:00 3.0 -1.2 74 0.0 21 13   97.19     LegendNANA
17:00 2.7 -0.7 78 0.0 19 11   97.17     LegendNANA
18:00 2.1 -0.1 85 0.0 20 15   97.15     LegendNANA
19:00 1.1 -0.2 91 0.3 20 13   97.17     LegendNANA
20:00 0.8 0.2 96 0.4 18 8   97.17     LegendNANA
21:00 1.4 0.4 93 0.0 21 13   97.21     LegendNANA
22:00 2.0 0.2 88 0.0 23 14   97.23     LegendNANA
23:00 1.9 0.1 88 0.0 22 10   97.20     LegendNANA

Notes on Data Quality.

Legend

  • E = Estimated
  • M = Missing
  • NA = Not Available*
  • [empty] = Indicates an unobserved value
Date modified: